Date String (YYYY-MM-DD hh:mm:ss) UTC,Instrument flags,Ambient pressure (hPa),Sample flow (lpm),Bypass flow (lpm),Sample temperature (°C),Ambient temperature (°C),ASC tube jacket temperature (°C),LED temperature (°C),Box temperature (°C),Sample RH (%),Span deviation,Mass concentration (μg/m³),Mass concentration (μg/m³),Mass concentration (μg/m³)
DateTimeUTC,F1_M11,P_M11,Q1_M11,Q2_M11,T1_M11,T2_M11,T3_M11,T4_M11,T5_M11,U1_M11,ZSPAN_M11,X0_M11,X2_M11,X1_M11
2021-11-13 19:00:00,,0825.7,5.02,0.00,26.4,25.6,00.0,35.4,28.2,12.7,0000.0,0003.84,0000.54,0000.36
2021-11-13 19:01:00,,0825.9,4.99,0.00,26.4,25.5,00.0,35.4,28.2,12.5,0000.0,0003.96,0000.59,0000.36
2021-11-13 19:02:00,,0825.9,5.00,0.00,26.4,25.5,00.0,35.4,28.2,12.6,0000.0,0003.97,0000.60,0000.36
2021-11-13 19:03:00,,0825.9,5.01,0.00,26.4,25.5,00.0,35.4,28.2,12.6,0000.0,0003.93,0000.60,0000.37
2021-11-13 19:04:00,,0826.0,5.00,0.00,26.4,25.5,00.0,35.4,28.2,12.6,0000.0,0003.98,0000.61,0000.37
2021-11-13 19:05:00,,0825.8,4.99,0.00,26.4,25.5,00.0,35.4,28.2,12.6,0000.0,0004.00,0000.62,0000.37
2021-11-13 19:06:00,,0826.0,5.01,0.00,26.4,25.5,00.0,35.4,28.2,12.5,0000.0,0004.09,0000.64,0000.37
2021-11-13 19:07:00,,0825.9,5.01,0.00,26.4,25.5,00.0,35.4,28.2,12.6,0000.0,0002.81,0000.63,0000.36
2021-11-13 19:08:00,,0825.8,5.00,0.00,26.4,25.5,00.0,35.4,28.2,12.8,0000.0,0001.44,0000.59,0000.35
2021-11-13 19:09:00,,0825.6,4.98,0.00,26.5,25.6,00.0,35.4,28.3,12.7,0000.0,0001.48,0000.60,0000.35
2021-11-13 19:10:00,,0825.7,5.00,0.00,26.5,25.6,00.0,35.4,28.2,12.6,0000.0,0001.50,0000.59,0000.35
2021-11-13 19:11:00,,0825.8,4.99,0.00,26.5,25.6,00.0,35.4,28.3,12.6,0000.0,0002.02,0000.60,0000.35
2021-11-13 19:12:00,,0826.0,5.01,0.00,26.5,25.6,00.0,35.4,28.3,12.6,0000.0,0001.95,0000.58,0000.35
2021-11-13 19:13:00,,0826.0,4.99,0.00,26.5,25.6,00.0,35.5,28.3,12.7,0000.0,0001.91,0000.58,0000.35
2021-11-13 19:14:00,,0825.8,5.01,0.00,26.5,25.6,00.0,35.5,28.3,12.6,0000.0,0001.91,0000.58,0000.35
2021-11-13 19:15:00,,0825.8,4.99,0.00,26.5,25.6,00.0,35.5,28.3,12.5,0000.0,0001.92,0000.60,0000.36
2021-11-13 19:16:00,,0825.7,5.01,0.00,26.5,25.6,00.0,35.5,28.3,12.5,0000.0,0001.94,0000.62,0000.36
2021-11-13 19:17:00,,0825.7,5.00,0.00,26.5,25.6,00.0,35.5,28.3,12.6,0000.0,0001.88,0000.62,0000.36
2021-11-13 19:18:00,,0825.6,4.99,0.00,26.5,25.7,00.0,35.5,28.3,12.7,0000.0,0001.81,0000.62,0000.36
2021-11-13 19:19:00,,0825.5,5.01,0.00,26.5,25.7,00.0,35.5,28.3,12.7,0000.0,0001.73,0000.61,0000.35
2021-11-13 19:20:00,,0825.6,5.00,0.00,26.5,25.7,00.0,35.5,28.4,12.6,0000.0,0001.51,0000.59,0000.34
2021-11-13 19:21:00,,0825.7,4.99,0.00,26.5,25.7,00.0,35.5,28.4,12.4,0000.0,0002.75,0000.65,0000.34
2021-11-13 19:22:00,,0825.7,5.00,0.00,26.5,25.7,00.0,35.5,28.4,12.2,0000.0,0002.96,0000.66,0000.34
2021-11-13 19:23:00,,0825.9,5.01,0.00,26.5,25.7,00.0,35.5,28.3,12.5,0000.0,0003.08,0000.69,0000.34
2021-11-13 19:24:00,,0825.7,4.99,0.00,26.5,25.7,00.0,35.5,28.3,12.5,0000.0,0003.04,0000.66,0000.34
2021-11-13 19:25:00,,0825.8,5.00,0.00,26.5,25.7,00.0,35.5,28.3,12.6,0000.0,0003.91,0000.68,0000.34
2021-11-13 19:26:00,,0825.8,5.01,0.00,26.6,25.7,00.0,35.5,28.4,12.6,0000.0,0004.28,0000.67,0000.34
2021-11-13 19:27:00,,0825.9,4.99,0.00,26.6,25.7,00.0,35.5,28.4,12.7,0000.0,0005.43,0000.72,0000.34
2021-11-13 19:28:00,,0825.9,5.00,0.00,26.6,25.7,00.0,35.5,28.3,12.7,0000.0,0005.60,0000.72,0000.34
2021-11-13 19:29:00,,0825.9,5.00,0.00,26.6,25.6,00.0,35.5,28.3,12.8,0000.0,0006.10,0000.77,0000.35
2021-11-13 19:30:00,,0825.8,5.00,0.00,26.6,25.7,00.0,35.6,28.3,12.9,0000.0,0006.99,0000.78,0000.37
2021-11-13 19:31:00,,0825.4,5.00,0.00,26.6,25.7,00.0,35.6,28.4,12.9,0000.0,0007.04,0000.81,0000.37
2021-11-13 19:32:00,,0825.3,4.99,0.00,26.6,25.7,00.0,35.6,28.5,12.7,0000.0,0007.30,0000.80,0000.38
2021-11-13 19:33:00,,0825.4,5.00,0.00,26.6,25.7,00.0,35.6,28.5,12.6,0000.0,0008.64,0000.90,0000.40
2021-11-13 19:34:00,,0825.3,5.01,0.00,26.6,25.7,00.0,35.6,28.5,12.7,0000.0,0009.14,0000.97,0000.42
2021-11-13 19:35:00,,0825.2,4.99,0.00,26.6,25.7,00.0,35.6,28.5,12.7,0000.0,0009.69,0001.06,0000.42
2021-11-13 19:36:00,,0825.2,5.00,0.00,26.6,25.6,00.0,35.6,28.5,12.8,0000.0,0009.84,0001.11,0000.42
2021-11-13 19:37:00,,0825.1,5.01,0.00,26.6,25.6,00.0,35.6,28.5,12.7,0000.0,0010.06,0001.13,0000.43
2021-11-13 19:38:00,,0825.1,4.99,0.00,26.6,25.6,00.0,35.6,28.5,12.7,0000.0,0010.02,0001.15,0000.43
2021-11-13 19:39:00,,0825.0,4.99,0.00,26.6,25.6,00.0,35.6,28.5,12.6,0000.0,0010.16,0001.23,0000.43
2021-11-13 19:40:00,,0824.9,5.01,0.00,26.6,25.6,00.0,35.6,28.4,12.8,0000.0,0010.25,0001.27,0000.44
2021-11-13 19:41:00,,0825.0,5.01,0.00,26.6,25.6,00.0,35.6,28.4,12.6,0000.0,0010.13,0001.30,0000.43
2021-11-13 19:42:00,,0825.0,5.00,0.00,26.6,25.6,00.0,35.5,28.4,12.7,0000.0,0010.77,0001.35,0000.43
2021-11-13 19:43:00,,0824.9,4.99,0.00,26.6,25.6,00.0,35.5,28.4,12.6,0000.0,0010.62,0001.36,0000.43
2021-11-13 19:44:00,,0824.8,5.01,0.00,26.6,25.6,00.0,35.5,28.4,12.6,0000.0,0009.16,0001.28,0000.41
2021-11-13 19:45:00,,0824.8,5.00,0.00,26.6,25.6,00.0,35.5,28.4,12.6,0000.0,0008.17,0001.19,0000.39
2021-11-13 19:46:00,,0824.7,4.99,0.00,26.5,25.6,00.0,35.5,28.4,12.6,0000.0,0007.73,0001.13,0000.39
2021-11-13 19:47:00,,0824.6,5.00,0.00,26.5,25.6,00.0,35.5,28.4,12.6,0000.0,0007.17,0001.10,0000.39
2021-11-13 19:48:00,,0824.6,5.00,0.00,26.5,25.6,00.0,35.5,28.4,12.5,0000.0,0006.45,0001.06,0000.39
2021-11-13 19:49:00,,0824.7,5.01,0.00,26.5,25.6,00.0,35.5,28.4,12.4,0000.0,0005.13,0001.01,0000.39
2021-11-13 19:50:00,,0824.5,4.99,0.00,26.5,25.6,00.0,35.5,28.4,12.5,0000.0,0004.86,0000.96,0000.39
2021-11-13 19:51:00,,0824.6,4.99,0.00,26.5,25.6,00.0,35.5,28.4,12.5,0000.0,0004.60,0000.92,0000.38
2021-11-13 19:52:00,,0824.6,5.01,0.00,26.5,25.6,00.0,35.5,28.4,12.6,0000.0,0004.13,0000.89,0000.38
2021-11-13 19:53:00,,0824.6,5.00,0.00,26.5,25.6,00.0,35.5,28.4,12.5,0000.0,0003.09,0000.89,0000.38
2021-11-13 19:54:00,,0824.6,5.01,0.00,26.5,25.6,00.0,35.5,28.4,12.4,0000.0,0002.54,0000.85,0000.37
2021-11-13 19:55:00,,0824.5,4.98,0.00,26.5,25.6,00.0,35.5,28.3,12.5,0000.0,0002.22,0000.85,0000.37
2021-11-13 19:56:00,,0824.6,5.01,0.00,26.5,25.6,00.0,35.5,28.4,12.4,0000.0,0002.51,0000.89,0000.37
2021-11-13 19:57:00,,0824.7,4.99,0.00,26.5,25.6,00.0,35.5,28.4,12.5,0000.0,0002.64,0000.91,0000.37
2021-11-13 19:58:00,,0824.8,4.99,0.00,26.5,25.6,00.0,35.5,28.4,12.5,0000.0,0002.54,0000.87,0000.36
2021-11-13 19:59:00,,0824.8,5.01,0.00,26.5,25.6,00.0,35.5,28.3,12.5,0000.0,0002.45,0000.86,0000.36
